Theta_e
342 342 341 338 337 338 335 334 334 333 336 336 336 337 337 337 337 337 336 336 335 335 335 336 336 335 334 332 331 330 327 326 325 324 323 323 325 327 329 330 330 329 328 328 329 328 327 326 327 327 325 325 325 328 333 332 329 330 329 330 330 331
344 343 342 340 339 340 337 337 337 335 336 336 336 337 337 337 337 338 337 337 336 336 335 335 336 336 335 332 332 332 327 325 323 321 321 320 321 325 328 329 329 328 328 329 329 327 325 325 326 327 326 326 328 330 333 333 330 329 329 329 331 330
344 343 343 342 341 341 338 339 339 338 338 336 337 336 336 336 336 338 338 337 336 335 336 336 336 335 334 331 331 332 328 325 324 322 322 322 320 323 327 328 328 327 327 327 327 327 326 325 323 324 325 326 331 333 333 332 330 330 331 330 330 329
343 343 343 343 342 341 340 340 340 340 339 337 338 336 336 337 336 337 338 337 337 335 335 336 336 335 335 332 332 332 329 326 326 325 324 325 325 325 326 327 328 326 325 324 325 327 329 327 323 322 324 327 332 333 332 332 332 331 331 330 328 327
342 342 341 341 340 341 339 339 341 340 339 339 339 337 337 338 336 336 337 337 339 336 334 336 337 336 336 334 334 331 329 328 329 329 326 328 332 330 328 329 329 326 325 325 325 326 328 329 327 325 327 330 332 332 331 332 332 332 331 330 329 325
340 340 340 339 338 338 339 340 341 341 340 339 339 338 337 337 336 335 335 337 338 337 336 336 337 336 335 334 335 333 332 332 332 333 330 330 333 332 331 332 331 328 328 329 329 329 328 329 329 328 329 330 331 332 332 332 332 333 332 332 330 324
339 339 338 338 337 337 338 339 340 342 341 340 338 337 335 337 338 336 336 337 336 337 337 336 336 335 335 335 334 334 334 334 333 334 333 332 333 332 332 333 332 331 331 331 331 331 330 329 328 327 328 329 330 331 332 332 332 333 333 332 330 324
338 338 337 336 337 336 335 336 336 339 340 339 338 336 337 338 338 337 336 336 335 336 336 335 335 333 334 334 334 334 334 333 334 334 334 333 333 332 331 332 332 331 331 331 331 332 331 330 329 328 328 328 329 330 331 332 332 333 333 333 331 325
338 337 337 336 337 337 335 335 335 336 338 337 337 335 336 338 336 335 336 335 335 336 335 334 335 333 333 335 334 334 334 333 333 333 334 334 333 331 331 330 331 332 331 331 331 331 331 330 330 329 329 328 329 329 330 331 332 333 332 333 332 327
336 336 335 335 336 336 335 336 335 336 336 336 335 334 334 336 335 335 337 335 334 336 335 334 335 335 334 335 335 335 335 333 333 334 334 335 333 331 330 330 331 332 331 331 331 331 330 331 331 331 330 329 329 329 330 331 332 332 332 333 333 329
331 332 332 333 334 335 336 336 335 335 335 335 334 334 334 335 335 336 336 335 334 335 335 334 335 335 334 335 336 336 335 332 333 335 334 334 332 331 331 331 330 330 331 331 331 330 329 330 330 331 331 330 330 328 329 330 331 332 332 332 332 331
330 331 331 331 331 332 331 332 334 335 335 334 333 333 333 334 335 336 336 335 335 334 334 335 337 336 335 335 336 336 334 332 332 332 333 333 332 333 333 331 330 330 330 330 330 331 330 330 330 331 331 331 330 329 329 329 331 331 331 331 332 332
328 329 331 331 330 330 330 330 330 333 335 335 333 332 333 333 334 335 336 336 335 334 334 335 337 336 336 336 335 335 333 333 333 332 333 334 333 333 332 330 329 329 330 330 330 330 330 329 330 330 331 331 331 330 330 330 330 330 331 331 331 332
328 329 330 329 329 330 329 329 329 332 335 336 335 332 332 334 334 335 336 336 335 335 335 336 336 335 335 335 335 335 333 334 335 333 333 334 334 333 332 331 329 328 329 330 330 330 330 330 330 331 330 331 331 330 330 330 329 330 330 330 331 331
328 329 330 329 330 329 329 330 330 332 332 334 335 334 334 334 334 334 334 334 334 334 334 334 335 333 333 335 335 334 333 334 336 334 334 334 333 332 332 332 330 329 330 330 331 331 331 331 330 331 330 330 330 330 330 330 330 330 330 330 330 330
331 330 331 331 331 330 329 329 329 330 329 330 331 332 333 333 333 334 333 333 333 334 333 333 334 333 332 334 334 333 333 334 335 335 334 334 333 332 333 333 331 331 330 330 331 331 332 331 327 327 327 328 328 328 330 330 329 329 329 330 330 330
333 332 332 331 330 329 328 327 327 328 327 328 329 329 331 331 332 333 332 333 333 333 333 333 334 333 333 334 333 333 334 334 334 334 333 333 333 333 333 332 331 331 331 331 330 331 332 330 328 327 326 326 326 327 328 328 328 328 328 328 329 329
333 331 331 329 328 328 328 326 325 325 324 326 327 326 328 330 330 331 331 332 332 331 332 333 332 333 334 333 332 333 334 334 334 335 333 332 332 332 332 331 330 330 331 330 330 331 332 331 331 331 329 327 326 326 326 325 325 327 328 328 328 328
333 330 329 329 329 328 326 325 324 323 322 324 325 324 326 328 328 329 330 330 330 330 330 331 330 330 332 331 331 332 332 332 333 334 334 332 333 332 331 330 330 331 331 331 330 331 331 331 331 331 331 329 326 325 324 324 324 325 326 328 328 328
332 329 328 329 328 326 325 325 325 325 323 324 325 324 325 326 326 328 328 327 328 329 329 329 329 329 329 329 329 330 330 331 331 332 333 332 332 332 331 330 331 331 331 330 329 328 330 330 330 331 330 328 326 325 324 323 323 324 326 327 327 327
330 329 328 327 326 326 326 324 324 325 323 322 322 323 325 325 325 324 323 323 323 325 326 326 327 328 328 328 329 330 330 331 331 331 333 332 331 331 331 330 330 330 329 328 326 325 327 330 330 330 330 327 326 325 323 322 322 322 323 326 327 326
328 328 327 326 326 325 324 323 323 324 323 322 321 322 323 323 322 323 322 322 323 324 324 324 324 325 326 327 328 328 330 332 331 331 332 332 331 331 331 330 330 329 327 327 327 326 328 330 330 330 330 329 327 324 322 322 322 321 321 323 325 325
327 326 327 325 325 325 324 323 321 322 323 324 322 322 322 321 321 322 322 323 324 324 324 323 323 323 324 325 326 327 328 329 330 330 331 331 331 331 331 331 330 328 328 328 328 329 330 329 328 329 328 329 331 329 328 326 324 325 323 322 323 323
326 324 326 324 324 326 324 322 321 320 321 321 320 320 321 321 321 321 322 323 323 323 323 322 322 322 323 323 323 325 326 327 327 328 329 329 329 329 329 330 329 329 329 329 329 328 329 328 328 329 328 329 331 331 332 330 328 327 324 323 323 322
325 324 326 324 325 325 323 323 321 319 317 318 319 320 321 321 321 321 322 323 323 323 322 322 322 321 321 321 322 323 324 325 326 326 326 327 327 327 327 328 329 329 329 329 328 327 328 328 328 328 329 329 330 330 332 331 329 329 324 322 325 325
325 325 324 324 325 324 323 322 320 318 317 318 321 322 321 321 320 321 322 322 323 323 322 321 321 321 321 321 322 322 322 322 323 323 323 323 324 324 325 327 327 328 328 328 328 326 327 327 327 327 328 329 329 329 330 329 331 332 327 324 324 323
325 325 324 325 325 323 322 321 318 317 318 320 323 322 321 320 321 321 322 323 323 323 322 322 321 321 321 321 320 320 319 319 320 320 320 320 321 322 323 324 324 325 326 326 327 326 325 325 326 326 327 327 327 328 328 329 330 332 331 329 327 324
326 325 324 326 324 321 322 319 318 318 319 321 322 321 320 319 320 321 322 323 323 322 322 322 320 319 319 318 317 317 316 315 316 318 319 320 321 322 321 321 322 323 323 324 325 325 325 325 325 325 326 327 326 326 327 327 327 328 329 329 329 328
326 325 325 326 323 321 321 319 319 318 319 322 321 320 319 319 320 321 322 322 321 322 321 319 317 315 315 314 314 314 314 313 313 314 316 318 320 321 321 321 321 321 322 322 323 323 323 323 323 323 324 326 326 327 327 326 326 326 326 327 327 328
326 325 325 325 322 321 321 319 319 319 320 322 320 319 320 319 320 321 321 320 320 320 319 317 315 315 315 314 314 314 313 313 312 312 313 314 317 318 319 320 320 320 320 319 319 319 318 318 318 317 318 321 322 324 325 325 325 324 324 325 325 325
326 325 325 324 322 322 321 319 319 319 320 320 318 319 320 319 320 320 320 319 319 320 318 317 316 316 316 315 314 314 314 314 313 313 313 314 315 315 316 317 316 317 316 316 316 315 315 316 315 313 314 315 316 318 319 319 319 319 319 320 321 320
326 325 325 324 322 323 321 320 320 319 319 320 318 319 320 319 320 319 319 320 319 319 318 317 317 316 316 315 314 314 315 315 314 314 314 314 314 315 315 315 315 315 314 314 313 311 309 311 312 312 313 313 314 315 314 314 315 315 316 317 317 318
327 326 325 324 322 323 322 320 320 319 320 320 319 320 320 320 320 319 320 320 319 319 318 317 317 317 316 316 315 315 315 314 314 314 313 313 313 314 314 314 314 314 313 313 313 311 309 308 308 311 312 311 312 313 312 313 313 314 314 314 315 317
327 326 325 324 323 323 323 321 321 320 319 319 319 319 320 319 320 320 320 320 320 319 318 318 317 317 317 317 316 316 315 314 314 314 315 314 314 314 313 314 315 314 314 314 311 311 311 310 309 308 308 311 311 310 311 311 311 312 313 313 314 315
327 327 326 325 324 324 323 322 322 320 319 319 318 319 321 320 320 320 319 320 319 319 319 319 318 317 317 318 317 316 315 314 315 314 314 313 314 314 313 313 314 313 313 312 310 308 307 309 309 306 307 311 311 308 307 308 310 311 312 312 312 313
328 328 327 325 325 325 324 323 322 320 319 319 318 318 320 320 320 319 320 319 318 320 320 319 319 318 317 318 318 315 315 314 314 313 313 312 312 313 313 312 313 312 312 312 313 313 309 309 309 308 308 311 312 309 306 307 310 310 309 310 311 312
328 328 326 325 325 326 325 324 323 321 320 320 319 318 319 320 320 319 320 319 317 319 320 320 320 318 317 319 318 316 316 315 314 314 314 314 313 313 313 313 313 313 314 313 313 313 312 311 311 310 310 309 311 310 307 308 311 309 308 310 310 311
Wind_Speed
18 16 16 18 18 16 17 17 17 18 16 16 16 15 14 13 12 12 11 11 11 11 10 10 9 9 9 8 7 5 5 5 4 4 3 3 3 4 5 7 9 8 6 5 6 6 6 5 5 7 9 12 12 8 10 6 6 9 8 7 5 3
16 16 17 17 16 15 18 17 16 18 17 17 16 15 15 13 13 13 12 12 13 12 11 11 10 10 11 10 9 6 5 5 3 3 2 2 2 3 5 6 8 8 6 6 5 6 6 6 5 6 7 10 10 7 7 3 3 6 7 8 5 3
16 17 16 15 14 13 17 17 15 17 17 17 16 14 15 14 13 14 14 13 13 13 12 12 10 10 11 11 9 8 6 6 4 3 2 1 2 3 5 6 7 8 7 6 7 6 6 7 6 5 7 8 8 7 5 4 3 6 8 7 5 3
16 16 14 14 14 14 17 17 15 16 17 17 15 14 15 13 13 14 15 14 12 11 11 10 9 9 10 10 9 9 8 8 5 4 3 2 2 4 5 5 7 8 8 7 6 8 8 8 7 5 6 5 5 6 6 5 4 7 8 5 5 4
16 15 13 15 16 14 16 16 14 14 16 16 14 15 15 14 15 15 16 15 10 9 9 7 8 9 8 8 9 10 10 9 7 6 5 4 3 4 5 6 7 9 9 7 6 8 9 10 8 5 6 2 2 5 5 5 4 6 6 5 5 4
17 16 14 15 16 15 17 17 14 13 15 16 16 16 16 15 16 15 14 14 10 10 10 8 9 9 8 9 10 11 11 10 10 9 7 6 6 5 6 9 8 8 8 6 7 7 5 6 6 4 5 4 4 4 3 5 5 4 3 3 4 4
18 16 15 15 15 16 17 16 13 13 13 15 17 17 17 14 14 16 16 14 11 11 11 9 11 11 10 11 11 10 10 10 12 11 8 7 7 5 6 10 8 8 8 6 6 5 2 3 4 4 4 4 6 4 3 5 6 5 3 2 3 3
20 16 16 15 13 12 13 12 9 11 11 12 16 17 17 15 15 17 16 13 11 11 10 9 12 11 9 11 9 7 7 9 12 11 9 8 7 5 6 8 8 7 8 7 6 5 4 3 5 6 3 3 5 4 2 3 5 6 4 3 3 3
20 19 22 19 15 15 14 12 10 11 11 11 13 14 15 16 16 16 14 13 12 12 13 11 11 9 9 10 7 5 4 6 10 9 8 6 6 6 6 7 6 7 6 7 7 7 6 4 5 5 3 4 5 4 3 2 4 4 4 4 4 3
14 16 22 22 21 20 18 17 13 12 11 10 11 12 12 12 13 14 13 13 12 12 12 10 9 8 10 11 8 6 3 3 7 8 7 5 5 6 6 7 6 5 6 6 7 8 8 6 5 5 4 4 5 5 4 2 4 4 5 6 5 4
11 12 12 14 18 16 15 16 13 11 9 8 9 9 9 10 10 11 11 12 12 11 9 9 9 9 9 10 8 6 3 1 4 6 6 7 8 6 4 7 6 5 6 5 6 7 8 8 7 6 5 5 5 6 5 4 4 4 6 7 6 6
11 10 8 10 12 10 8 10 11 11 10 10 11 11 9 8 9 10 9 11 13 13 12 11 10 9 8 7 7 5 3 2 5 6 8 8 8 5 4 4 5 6 7 6 5 5 7 7 6 6 5 5 5 5 5 5 5 5 5 7 7 6
10 9 8 9 9 8 7 6 7 10 11 13 14 15 13 10 12 13 11 11 11 12 13 10 9 10 8 7 7 6 6 5 7 7 8 10 8 7 6 3 3 5 7 6 6 5 5 6 3 3 4 4 3 4 4 4 5 5 5 5 7 7
11 10 8 8 8 8 7 6 6 8 10 9 9 13 15 12 13 12 9 9 8 8 9 8 7 8 8 8 7 7 7 7 8 6 9 12 10 9 7 4 5 5 6 6 5 5 5 5 3 2 2 2 1 0 3 4 4 5 6 6 6 6
12 10 10 9 9 9 7 7 7 9 9 6 6 7 8 8 9 8 6 7 7 7 6 6 6 6 7 8 7 7 8 8 7 5 9 13 11 10 7 6 8 7 8 7 4 4 4 3 3 3 2 2 1 2 1 3 4 4 6 7 7 6
12 11 10 10 10 9 8 8 8 7 6 5 6 5 7 9 8 7 7 7 7 7 6 5 5 6 6 6 5 6 8 9 7 5 9 14 12 11 9 9 9 7 9 8 5 4 2 2 2 1 1 0 1 1 2 2 2 3 5 6 8 8
12 11 10 10 9 10 9 8 8 6 5 6 6 5 7 11 11 9 8 7 7 7 6 5 5 5 4 3 3 5 7 8 7 7 11 14 13 11 10 10 9 9 9 8 6 4 3 2 2 2 3 3 2 1 0 1 1 3 5 6 6 8
12 11 11 11 9 9 8 7 8 6 6 7 6 6 9 12 12 10 9 9 8 7 7 6 5 5 4 3 3 3 5 6 7 8 11 13 12 10 10 11 10 9 8 7 5 3 2 3 2 0 2 2 3 3 2 2 2 3 4 5 6 8
12 12 12 11 9 8 8 6 7 6 7 7 7 7 9 10 9 9 9 9 9 9 8 7 5 3 2 2 1 3 4 4 6 8 10 11 11 11 11 12 11 10 9 7 5 3 3 3 2 0 1 2 4 4 5 5 5 4 4 4 5 8
13 13 12 12 9 8 8 6 7 7 6 7 9 9 9 10 10 10 9 8 8 7 7 6 4 2 1 2 3 3 4 3 4 7 10 10 12 12 12 13 12 11 10 7 6 5 3 3 2 1 2 4 4 4 4 4 5 5 4 3 4 7
14 14 12 11 9 8 9 7 7 8 7 6 7 9 11 11 10 9 8 8 8 6 6 5 4 4 2 3 4 4 5 4 3 4 7 9 13 13 13 14 13 12 10 7 7 6 5 5 3 3 4 4 4 3 4 5 5 6 6 4 3 5
16 15 12 10 8 7 8 7 6 7 8 9 10 12 13 11 10 9 8 8 8 7 7 5 5 5 4 5 5 5 5 4 4 4 4 6 12 12 10 12 12 11 10 8 8 8 8 6 4 5 4 1 3 4 5 6 6 6 8 6 4 4
17 15 12 11 9 8 9 9 8 8 11 14 15 16 15 12 11 10 9 8 8 8 7 6 6 6 7 7 6 5 5 5 4 4 5 6 8 11 10 10 11 11 10 8 8 8 10 9 6 4 2 1 2 3 4 5 5 4 5 6 5 2
19 17 14 13 12 11 10 11 11 11 13 15 14 15 14 12 10 9 9 9 9 9 8 8 9 9 8 6 6 8 7 7 6 5 6 8 8 8 8 8 9 9 8 7 7 8 10 9 7 5 2 1 0 1 2 3 3 3 2 2 3 1
21 19 18 16 14 15 14 13 12 12 13 14 12 13 12 10 8 8 9 9 9 10 9 9 10 10 8 7 8 9 8 8 8 6 5 7 8 7 6 6 5 6 6 5 5 7 9 8 8 8 3 1 1 1 1 0 1 2 2 3 3 3
23 22 21 19 17 17 17 15 14 14 15 14 11 12 12 10 9 10 9 9 10 10 10 10 10 10 10 9 9 9 9 8 7 7 8 9 9 6 6 8 6 4 3 3 4 6 7 7 8 7 6 4 2 1 1 1 1 1 2 5 7 7
24 25 23 21 20 19 18 17 16 16 15 14 13 13 12 11 11 10 9 9 10 10 10 10 10 10 10 10 10 10 10 9 7 8 10 11 11 9 8 9 7 7 7 5 4 5 5 5 3 3 5 6 5 4 2 2 0 1 1 3 5 7
26 26 26 23 22 21 20 20 18 16 15 14 15 16 13 12 12 10 10 9 10 10 9 10 10 11 11 10 10 10 10 10 10 10 10 11 10 10 10 9 8 10 11 10 9 7 6 5 4 2 2 3 3 4 4 4 2 0 1 2 2 3
27 27 27 25 24 22 21 21 19 16 16 17 17 16 14 13 13 11 11 10 10 10 10 10 10 11 11 11 11 10 10 11 13 13 12 11 11 11 10 10 9 10 10 11 12 11 9 8 7 6 4 3 4 3 2 2 2 2 2 2 2 2
29 28 28 27 25 24 22 21 20 17 17 21 18 16 16 14 13 12 11 11 11 10 10 10 10 10 10 10 10 10 10 11 13 12 12 11 12 11 11 11 10 10 10 10 10 11 12 11 9 7 8 6 4 4 2 1 1 2 4 4 2 3
30 29 30 29 26 25 24 22 20 19 19 22 20 18 18 16 14 13 12 12 11 11 10 10 10 9 9 9 10 10 10 11 11 11 11 11 11 11 11 11 10 10 10 10 10 9 11 11 9 9 11 11 9 7 6 5 5 6 4 2 3 4
30 31 31 30 28 25 25 24 21 19 20 22 21 20 20 17 15 14 13 13 13 12 11 9 9 9 8 9 10 10 10 10 10 10 10 10 10 10 10 10 10 11 10 10 10 10 11 11 10 10 10 10 9 8 8 8 7 7 7 5 4 3
30 32 32 31 30 27 25 24 22 20 20 22 21 20 19 17 16 15 14 14 15 14 13 11 9 9 8 8 8 9 9 9 10 10 10 10 11 10 10 10 10 10 11 11 10 11 12 11 10 10 8 8 9 8 7 6 5 5 5 5 4 3
30 31 33 32 30 28 25 24 23 22 20 21 21 19 19 18 16 16 15 15 15 15 14 13 12 10 9 8 7 7 7 8 9 10 10 10 10 9 9 10 10 9 10 10 9 11 11 10 10 9 9 9 8 7 6 5 5 6 7 7 7 6
27 29 30 32 30 27 25 24 23 23 21 21 21 19 18 18 16 16 16 15 14 15 15 14 14 12 10 9 8 8 8 8 8 8 9 10 10 9 9 9 9 9 9 8 9 10 10 10 9 8 10 10 7 5 4 5 4 4 5 6 7 9
20 28 27 28 29 27 25 23 24 24 22 21 21 19 18 19 17 15 16 15 13 13 15 15 15 14 12 12 11 9 8 8 8 8 9 9 9 9 8 7 8 8 8 8 8 7 7 8 8 7 9 8 5 4 4 5 4 2 1 2 3 5
13 19 23 25 26 26 24 23 23 24 23 22 21 20 17 19 19 15 15 16 12 11 14 15 16 15 13 12 11 10 10 9 9 8 9 8 8 9 8 7 7 7 7 6 6 6 5 5 5 5 6 5 4 3 4 4 2 2 2 2 2 3
Wind_Direction
161 164 169 175 171 172 178 179 178 175 176 176 172 171 173 176 173 170 169 162 154 152 156 160 159 163 164 159 159 167 171 176 175 164 159 154 146 152 168 172 168 167 172 171 149 135 128 116 124 132 132 140 146 113 78 66 71 92 128 144 121 84
162 166 169 175 172 174 178 176 181 180 180 181 176 176 179 182 182 177 171 169 167 159 156 163 166 167 169 166 168 183 186 184 182 172 160 152 164 173 177 180 181 183 187 190 177 152 138 136 136 148 151 144 143 115 87 102 102 94 132 142 127 102
158 165 167 173 173 177 178 174 180 182 182 183 176 179 186 190 193 187 178 180 185 177 164 168 173 169 171 171 174 188 194 192 192 182 167 159 187 186 186 192 196 198 197 206 206 190 167 156 151 155 168 158 135 114 119 144 118 115 137 137 121 86
161 163 167 172 171 175 178 177 179 182 182 179 176 183 188 192 198 192 186 190 198 197 183 176 177 171 171 177 181 188 197 202 199 196 201 202 194 185 193 204 205 205 201 204 213 213 209 188 164 145 156 160 140 139 151 150 109 119 133 116 93 61
167 165 174 175 174 180 182 181 180 184 182 174 177 189 188 187 197 199 195 195 194 194 197 194 184 171 171 183 188 189 201 208 204 210 218 213 222 212 200 208 209 205 199 196 215 234 232 203 177 155 151 139 155 156 157 162 135 115 118 97 75 53
165 166 177 179 180 184 183 184 182 184 184 178 184 200 202 195 200 207 207 203 190 181 191 198 186 179 179 184 190 193 202 207 204 208 207 204 236 250 198 200 208 202 200 202 226 247 243 186 171 182 178 169 174 156 149 170 154 116 105 87 74 64
163 166 171 176 181 180 180 185 185 187 185 180 186 201 208 204 205 213 215 210 202 191 190 190 189 190 186 185 195 203 205 206 203 202 197 193 221 246 198 194 203 201 205 208 218 228 221 186 178 187 190 177 183 183 171 169 161 157 170 151 103 81
158 164 165 170 178 177 182 187 188 195 192 182 183 188 194 198 204 213 216 207 201 199 196 192 193 194 183 178 186 198 201 204 203 200 194 181 188 217 206 194 198 200 205 204 204 207 204 224 207 186 186 197 199 213 206 149 145 154 163 179 154 119
153 162 162 164 168 171 180 184 183 195 202 200 193 185 188 196 199 204 207 203 201 198 196 190 187 186 171 162 163 184 181 190 194 185 179 174 179 200 200 192 196 198 201 206 203 201 200 215 230 210 200 206 198 206 215 150 144 152 163 186 176 141
145 150 156 161 160 164 173 179 182 185 188 197 196 183 184 193 193 192 189 195 206 207 201 187 174 171 165 156 158 174 140 152 179 163 158 166 189 191 180 187 193 194 200 212 209 200 199 203 218 227 229 224 209 204 203 176 178 183 178 181 179 162
128 127 136 149 148 151 163 169 170 172 174 180 188 184 187 189 187 190 183 188 203 210 201 180 176 175 167 155 147 153 133 169 199 178 179 174 181 178 168 191 186 192 206 204 210 199 194 201 205 212 227 235 229 215 202 197 201 199 193 189 188 185
122 126 96 108 127 128 143 151 151 160 161 158 172 183 193 188 179 187 186 190 197 197 189 181 187 181 171 158 142 146 153 225 243 229 223 190 174 164 158 199 188 197 211 198 211 204 180 190 202 200 214 231 234 234 220 208 210 218 215 200 198 206
118 127 87 89 106 104 110 110 126 141 141 148 161 170 175 175 178 185 185 188 191 189 186 180 180 170 163 162 151 165 168 196 229 230 224 201 181 167 161 187 194 193 203 196 210 211 179 181 182 187 218 227 218 237 248 228 216 227 237 215 203 212
115 114 94 97 91 88 98 87 100 106 110 130 145 157 166 170 177 179 177 181 171 169 179 174 170 164 164 164 159 182 186 192 211 211 206 200 186 173 163 167 179 179 187 189 191 190 182 176 144 118 199 211 101 250 269 260 241 233 244 240 216 213
120 112 100 103 91 89 93 78 84 85 84 96 100 118 134 147 163 157 156 171 151 142 158 163 154 145 153 160 170 195 193 191 201 195 193 192 180 172 170 171 174 172 178 179 172 180 182 173 143 100 126 128 72 57 9 286 259 242 249 246 239 237
118 112 105 101 93 93 91 75 80 82 80 101 107 90 81 93 106 114 135 156 149 141 146 148 133 129 139 152 183 191 178 183 189 177 182 182 171 168 175 178 176 164 162 163 162 171 159 176 212 236 230 213 316 3 25 333 274 256 265 255 248 247
115 113 107 102 97 93 89 81 88 87 77 93 99 94 100 94 81 84 105 121 131 137 137 136 133 132 131 145 195 185 168 175 178 178 179 174 166 166 175 178 175 163 157 160 165 154 129 148 209 246 253 260 281 279 199 8 316 265 265 259 254 251
123 120 113 108 102 98 98 87 86 80 77 91 84 73 92 91 78 72 81 90 97 102 105 110 124 135 138 155 193 181 169 168 167 173 172 170 169 167 175 177 169 162 156 156 159 140 112 120 113 210 265 269 274 271 252 279 303 286 276 270 266 260
128 127 123 116 109 108 109 93 93 93 83 89 83 70 73 81 83 77 73 76 82 85 87 91 96 104 141 154 148 161 168 169 169 175 172 171 176 175 178 176 166 161 150 140 159 161 133 132 127 159 296 296 296 290 273 270 267 272 284 291 288 274
137 134 131 128 127 127 124 111 109 104 83 78 82 80 77 82 89 85 80 79 80 85 86 91 96 72 72 79 75 122 139 139 156 177 183 185 187 183 177 174 170 170 161 147 167 179 187 198 189 236 278 280 290 306 303 284 259 251 249 264 298 286
145 139 140 143 147 144 136 127 116 111 100 94 106 105 93 87 86 81 79 81 80 87 90 89 98 99 106 96 82 92 112 114 91 129 177 198 203 192 178 180 178 177 182 185 191 209 242 230 198 226 256 271 272 287 309 300 280 261 246 246 295 301
151 147 150 149 143 129 122 122 122 126 110 87 97 109 100 90 88 84 76 79 81 83 87 88 93 96 101 105 96 73 85 118 110 105 136 187 208 202 184 183 183 183 193 201 202 212 220 207 201 225 227 277 288 286 297 301 303 280 255 251 281 317
155 153 152 143 134 114 104 108 103 105 102 88 88 97 98 92 90 88 82 80 84 82 82 86 94 98 90 92 98 87 86 104 113 121 125 138 186 202 198 195 195 197 201 207 212 212 206 196 196 215 194 120 308 308 301 303 316 299 260 245 253 302
159 157 150 141 142 134 118 109 99 98 103 99 94 93 93 91 88 88 85 81 78 80 78 70 77 89 87 80 81 91 100 99 104 124 131 132 147 174 193 199 201 205 209 212 213 211 211 203 189 193 176 106 78 338 308 300 314 311 275 219 229 250
161 159 152 147 149 145 134 121 112 107 102 101 103 102 100 100 101 94 87 85 80 80 83 76 75 82 84 82 74 78 93 99 105 109 118 138 139 139 157 165 179 202 209 209 204 208 217 213 201 207 217 119 113 249 261 292 320 296 239 217 230 227
164 161 155 154 155 148 140 134 129 122 119 124 131 126 122 123 117 105 94 91 88 85 87 86 83 83 85 88 80 73 81 88 89 76 74 101 108 99 121 135 141 160 172 190 190 190 202 209 209 215 223 230 250 255 157 120 331 279 242 241 235 231
165 161 157 157 157 151 145 144 142 138 140 146 139 127 123 122 116 112 108 100 95 92 91 89 87 86 87 88 84 77 77 84 89 77 69 79 81 66 77 98 99 98 90 85 119 148 171 192 210 223 222 232 255 263 240 224 234 33 296 261 239 237
165 163 160 160 159 154 152 153 152 150 152 145 129 124 125 126 125 123 120 113 105 99 94 94 92 90 90 91 91 86 80 83 91 93 85 80 81 73 73 75 72 79 82 80 85 102 131 143 128 121 157 197 236 261 269 255 232 282 331 307 269 256
165 165 162 162 160 157 158 158 156 157 151 136 130 133 135 134 134 135 129 121 114 105 101 100 95 92 91 89 89 87 82 80 85 93 94 90 92 91 87 83 76 75 77 78 80 85 91 95 97 98 101 157 184 182 236 244 206 216 239 267 286 271
165 166 165 165 162 159 163 162 159 162 147 135 140 146 142 141 142 140 131 123 118 113 111 106 101 98 95 92 90 87 85 83 84 89 93 95 98 99 97 96 94 88 82 79 79 83 83 80 80 76 67 65 94 121 137 181 171 236 232 227 260 316
166 167 167 166 164 162 166 165 163 164 149 142 152 152 145 148 150 145 139 136 131 126 125 120 116 112 108 106 102 95 93 91 92 93 94 97 98 98 98 98 99 97 93 86 81 87 91 87 82 78 72 61 53 59 58 47 33 15 10 2 342 337
167 168 168 167 166 165 167 167 166 167 155 151 158 154 150 155 155 154 153 147 141 136 136 135 131 127 123 119 113 107 105 104 103 102 102 106 107 104 103 102 99 95 95 93 89 89 91 91 91 85 77 67 60 61 55 44 34 24 26 21 351 311
167 168 167 167 168 167 169 168 166 168 160 156 159 156 156 162 161 161 160 154 150 148 149 150 149 142 135 128 121 117 117 118 117 114 111 111 110 108 106 103 101 97 94 92 88 86 84 86 92 90 85 79 73 70 64 52 42 28 21 8 343 319
167 169 167 167 169 168 169 169 167 168 164 159 161 160 161 167 167 166 167 163 161 159 159 161 161 158 151 142 135 132 130 127 125 121 121 121 116 111 109 106 104 100 97 95 94 93 92 90 88 91 98 91 77 74 75 65 49 24 13 13 8 5
167 167 168 166 168 168 168 169 167 168 167 164 165 166 166 170 172 173 172 170 170 168 166 167 167 166 161 155 156 154 146 138 135 134 132 130 124 118 119 120 115 110 106 104 97 90 91 96 91 92 100 95 80 70 73 77 64 20 12 18 10 4
183 168 168 166 166 168 169 169 167 168 170 168 169 172 173 174 176 180 176 173 176 173 168 169 172 172 167 166 171 167 159 152 148 146 138 131 133 132 129 129 124 118 114 106 99 89 82 88 88 87 95 97 95 69 54 78 82 25 20 33 16 9
230 167 164 169 167 167 169 169 168 170 172 172 172 176 180 177 176 181 178 173 177 179 170 170 174 173 169 172 176 169 168 168 161 157 150 146 152 148 142 145 141 133 129 124 125 126 110 90 86 86 82 83 99 76 33 55 53 7 45 42 44 56